[ hide orbit diagram ]
For accurate long-term ephemerides, please instead use our Horizons system.This orbit viewer was implemented using two-body methods, and hence should not be used for determining accurate long-term trajectories (over several years or decades) or planetary encounter circumstances.
Orbital Elements at Epoch 2459000.5 (2020-May-31.0) TDB
Reference: JPL 13 (heliocentric ecliptic J2000)
Element | Value | Uncertainty (1-sigma) | Units |
e | .2748951971779591 | 6.0624e-08 | |
a | 2.322712143756192 | 1.4108e-08 | au |
q | 1.684209731010693 | 1.4539e-07 | au |
i | 5.300323356500697 | 5.5411e-06 | deg |
node | 77.54158713810045 | 6.1539e-05 | deg |
peri | 289.7721359678774 | 6.2595e-05 | deg |
M | 6.840800847049063 | 1.1365e-05 | deg |
tp | 2458975.930520330376 (2020-May-06.43052033) | 4.0674e-05 | TDB |
period | 1292.979123179711 3.54 | 1.178e-05 3.225e-08 | d yr |
n | .2784267692696253 | 2.5368e-09 | deg/d |
Q | 2.96121455650169 | 1.7987e-08 | au |
|
| | Orbit Determination Parameters
Additional Information
|
[ hide covariance matrix ]
Orbital Elements at Epoch 2457842.5 (2017-Mar-30.0) TDB
Reference: JPL 13 (heliocentric ecliptic J2000)
Element | Value | Uncertainty (1-sigma) | Units |
e | .2764002083986314 | 6.0654e-08 | |
q | 1.680302886371316 | 1.456e-07 | au |
tp | 2457683.189052588430 (2016-Oct-21.68905259) | 3.388e-05 | TDB |
node | 77.55016428114642 | 6.1568e-05 | deg |
peri | 289.8260676507505 | 6.2605e-05 | deg |
i | 5.301023625920654 | 5.5407e-06 | deg |
|
| | Orbit Determination Parameters
Additional Information
|
Orbit Covariance (6×6)
|
|
e |
q |
tp |
node |
peri |
i |
e |
3.678928158101865E-15 |
-8.813179517734984E-15 |
-4.086256364516669E-13 |
-6.637388022094541E-15 |
-9.169243975508724E-15 |
-2.487107993408335E-14 |
q |
-8.813179517734984E-15 |
2.119822625409228E-14 |
1.091867003782386E-12 |
1.459182168655025E-14 |
5.734319263304455E-14 |
6.036491312997579E-14 |
tp |
-4.086256364516669E-13 |
1.091867003782386E-12 |
1.147851126721458E-9 |
-3.450502274253651E-12 |
3.973925480655315E-10 |
6.043266494979184E-12 |
node |
-6.637388022094541E-15 |
1.459182168655025E-14 |
-3.450502274253651E-12 |
3.790572100441711E-9 |
-3.77633544893683E-9 |
1.360542118731341E-11 |
peri |
-9.169243975508724E-15 |
5.734319263304455E-14 |
3.973925480655315E-10 |
-3.77633544893683E-9 |
3.919374201353538E-9 |
-1.219971066393445E-11 |
i |
-2.487107993408335E-14 |
6.036491312997579E-14 |
6.043266494979184E-12 |
1.360542118731341E-11 |
-1.219971066393445E-11 |
3.069889640857821E-11 |
|
Physical Parameter Table
Parameter |
Symbol |
Value |
Units |
Sigma |
Reference |
Notes |
absolute magnitude |
H |
17.8 |
|
n/a |
MPO440656 |
|
|
382695 (2002 VK71) Discovered 2002-Nov-07 by LINEAR at Socorro |
Reference: | Last Updated: 2014-01-21 |
|
[ hide close-approach data ]
Close-Approach Data ...sorted by Date/Time (TDB)
|
Date/Time (TDB) |
Time Uncertainty (days_HH:MM) |
Body |
Nominal Distance (au) |
Minimum Distance (au) |
Maximum Distance (au) |
V-relative (km/s) |
V-infinity (km/s) |
JD (TDB) |
Time Uncertainty (minutes) |
Semi-major axis (km) |
Semi-minor axis (km) |
range-LOV angle (deg) |
N-sigma |
BP |
Orbit Ref. |
Reference |
Modified |
1951-Jan-26 14:35 |
00:09 |
Europ |
0.0214602403685537 |
0.0214556255159396 |
0.021464856941153 |
3.44231100962936 |
3.4423108657538 |
2433673.107584805 |
9.2681130231934 |
393.487791287281 |
73.2011691749038 |
-55.6765150978141 |
36476.921245707 |
T |
13 |
CATAB v2.0f-lin.ifort 2020-Dec-18 01:09:05 |
2020-Dec-18 01:09 |
2068-Feb-26 13:10 |
< 00:01 |
Juno |
0.0440945006460322 |
0.0440924770203514 |
0.0440965247260626 |
5.35746059845698 |
5.35746054695753 |
2476438.048527064 |
0.822308740740333 |
539.338641203272 |
91.4895747548256 |
85.4198571085505 |
71836.6826874347 |
T |
13 |
CATAB v2.0f-lin.ifort 2020-Dec-18 01:09:05 |
2020-Dec-18 01:09 |
|
|